Year,Month,Day,Hour,Minute,Value (Times are PST for temperature in C)
2010,02,19,00,00,7.30
2010,02,19,00,01,7.30
2010,02,19,00,02,7.30
2010,02,19,00,03,7.20
2010,02,19,00,04,7.20
2010,02,19,00,05,7.10
2010,02,19,00,06,7.10
2010,02,19,00,07,7.00
2010,02,19,00,08,7.00
2010,02,19,00,09,7.10
2010,02,19,00,10,7.10
2010,02,19,00,11,7.10
2010,02,19,00,12,7.10
2010,02,19,00,13,7.10
2010,02,19,00,14,7.10
2010,02,19,00,15,7.10
2010,02,19,00,16,7.00
2010,02,19,00,17,7.00
2010,02,19,00,18,6.90
2010,02,19,00,19,6.90
2010,02,19,00,20,6.80
2010,02,19,00,21,6.80
2010,02,19,00,22,6.80
2010,02,19,00,23,6.80
2010,02,19,00,24,6.80
2010,02,19,00,25,6.70
2010,02,19,00,26,6.60
2010,02,19,00,27,6.60
2010,02,19,00,28,6.60
2010,02,19,00,29,6.60
2010,02,19,00,30,6.50
2010,02,19,00,31,6.50
2010,02,19,00,32,6.60
2010,02,19,00,33,6.60
2010,02,19,00,34,6.60
2010,02,19,00,35,6.60
2010,02,19,00,36,6.60
2010,02,19,00,37,6.70
2010,02,19,00,38,6.70
2010,02,19,00,39,6.70
2010,02,19,00,40,6.80
2010,02,19,00,41,6.80
2010,02,19,00,42,6.80
2010,02,19,00,43,6.80
2010,02,19,00,44,6.80
2010,02,19,00,45,6.80
2010,02,19,00,46,6.80
2010,02,19,00,47,6.80
2010,02,19,00,48,6.80
2010,02,19,00,49,6.80
2010,02,19,00,50,6.80
2010,02,19,00,51,6.80
2010,02,19,00,52,6.80
2010,02,19,00,53,6.80
2010,02,19,00,54,6.80
2010,02,19,00,55,6.80
2010,02,19,00,56,6.70
2010,02,19,00,57,6.70
2010,02,19,00,58,6.70
2010,02,19,00,59,6.60
2010,02,19,01,00,6.60
2010,02,19,01,01,6.60
2010,02,19,01,02,6.60
2010,02,19,01,03,6.60
2010,02,19,01,04,6.60
2010,02,19,01,05,6.60
2010,02,19,01,06,6.60
2010,02,19,01,07,6.60
2010,02,19,01,08,6.70
2010,02,19,01,09,6.70
2010,02,19,01,10,6.70
2010,02,19,01,11,6.70
2010,02,19,01,12,6.80
2010,02,19,01,13,6.80
2010,02,19,01,14,6.80
2010,02,19,01,15,6.80
2010,02,19,01,16,6.90
2010,02,19,01,17,6.90
2010,02,19,01,18,6.90
2010,02,19,01,19,6.90
2010,02,19,01,20,6.80
2010,02,19,01,21,6.80
2010,02,19,01,22,6.80
2010,02,19,01,23,6.80
2010,02,19,01,24,6.90
2010,02,19,01,25,6.90
2010,02,19,01,26,6.90
2010,02,19,01,27,7.00
2010,02,19,01,28,7.00
2010,02,19,01,29,7.00
2010,02,19,01,30,7.00
2010,02,19,01,31,7.00
2010,02,19,01,32,7.10
2010,02,19,01,33,7.10
2010,02,19,01,34,7.20
2010,02,19,01,35,7.20
2010,02,19,01,36,7.20
2010,02,19,01,37,7.20
2010,02,19,01,38,7.20
2010,02,19,01,39,7.10
2010,02,19,01,40,7.10
2010,02,19,01,41,7.10
2010,02,19,01,42,7.20
2010,02,19,01,43,7.20
2010,02,19,01,44,7.20
2010,02,19,01,45,7.20
2010,02,19,01,46,7.30
2010,02,19,01,47,7.30
2010,02,19,01,48,7.30
2010,02,19,01,49,7.30
2010,02,19,01,50,7.30
2010,02,19,01,51,7.30
2010,02,19,01,52,7.30
2010,02,19,01,53,7.30
2010,02,19,01,54,7.30
2010,02,19,01,55,7.30
2010,02,19,01,56,7.30
2010,02,19,01,57,7.30
2010,02,19,01,58,7.30
2010,02,19,01,59,7.20
2010,02,19,02,00,7.20
2010,02,19,02,01,7.20
2010,02,19,02,02,7.10
2010,02,19,02,03,7.10
2010,02,19,02,04,7.10
2010,02,19,02,05,7.10
2010,02,19,02,06,7.10
2010,02,19,02,07,7.10
2010,02,19,02,08,7.10
2010,02,19,02,09,7.10
2010,02,19,02,10,7.10
2010,02,19,02,11,7.10
2010,02,19,02,12,7.10
2010,02,19,02,13,7.10
2010,02,19,02,14,7.10
2010,02,19,02,15,7.10
2010,02,19,02,16,7.00
2010,02,19,02,17,7.00
2010,02,19,02,18,7.00
2010,02,19,02,19,6.90
2010,02,19,02,20,6.90
2010,02,19,02,21,6.80
2010,02,19,02,22,6.80
2010,02,19,02,23,6.80
2010,02,19,02,24,6.80
2010,02,19,02,25,6.70
2010,02,19,02,26,6.60
2010,02,19,02,27,6.60
2010,02,19,02,28,6.60
2010,02,19,02,29,6.60
2010,02,19,02,30,6.60
2010,02,19,02,31,6.60
2010,02,19,02,32,6.60
2010,02,19,02,33,6.60
2010,02,19,02,34,6.60
2010,02,19,02,35,6.60
2010,02,19,02,36,6.60
2010,02,19,02,37,6.60
2010,02,19,02,38,6.60
2010,02,19,02,39,6.70
2010,02,19,02,40,6.70
2010,02,19,02,41,6.70
2010,02,19,02,42,6.60
2010,02,19,02,43,6.60
2010,02,19,02,44,6.60
2010,02,19,02,45,6.60
2010,02,19,02,46,6.50
2010,02,19,02,47,6.40
2010,02,19,02,48,6.40
2010,02,19,02,49,6.40
2010,02,19,02,50,6.40
2010,02,19,02,51,6.40
2010,02,19,02,52,6.40
2010,02,19,02,53,6.40
2010,02,19,02,54,6.40
2010,02,19,02,55,6.40
2010,02,19,02,56,6.30
2010,02,19,02,57,6.30
2010,02,19,02,58,6.30
2010,02,19,02,59,6.30
2010,02,19,03,00,6.30
2010,02,19,03,01,6.40
2010,02,19,03,02,6.50
2010,02,19,03,03,6.60
2010,02,19,03,04,6.60
2010,02,19,03,05,6.60
2010,02,19,03,06,6.60
2010,02,19,03,07,6.60
2010,02,19,03,08,6.50
2010,02,19,03,09,6.40
2010,02,19,03,10,6.30
2010,02,19,03,11,6.20
2010,02,19,03,12,6.20
2010,02,19,03,13,6.10
2010,02,19,03,14,6.00
2010,02,19,03,15,6.00
2010,02,19,03,16,6.00
2010,02,19,03,17,5.90
2010,02,19,03,18,5.90
2010,02,19,03,19,5.90
2010,02,19,03,20,5.90
2010,02,19,03,21,5.90
2010,02,19,03,22,5.90
2010,02,19,03,23,6.00
2010,02,19,03,24,6.00
2010,02,19,03,25,6.00
2010,02,19,03,26,6.00
2010,02,19,03,27,6.00
2010,02,19,03,28,6.10
2010,02,19,03,29,6.20
2010,02,19,03,30,6.20
2010,02,19,03,31,6.20
2010,02,19,03,32,6.20
2010,02,19,03,33,6.20
2010,02,19,03,34,6.20
2010,02,19,03,35,6.30
2010,02,19,03,36,6.30
2010,02,19,03,37,6.30
2010,02,19,03,38,6.30
2010,02,19,03,39,6.30
2010,02,19,03,40,6.30
2010,02,19,03,41,6.30
2010,02,19,03,42,6.20
2010,02,19,03,43,6.20
2010,02,19,03,44,6.20
2010,02,19,03,45,6.20
2010,02,19,03,46,6.20
2010,02,19,03,47,6.20
2010,02,19,03,48,6.20
2010,02,19,03,49,6.10
2010,02,19,03,50,6.10
2010,02,19,03,51,6.00
2010,02,19,03,52,6.00
2010,02,19,03,53,6.00
2010,02,19,03,54,6.00
2010,02,19,03,55,6.00
2010,02,19,03,56,6.00
2010,02,19,03,57,6.10
2010,02,19,03,58,6.10
2010,02,19,03,59,6.20
2010,02,19,04,00,6.10
2010,02,19,04,01,6.10
2010,02,19,04,02,6.10
2010,02,19,04,03,6.10
2010,02,19,04,04,6.00
2010,02,19,04,05,6.00
2010,02,19,04,06,6.00
2010,02,19,04,07,5.90
2010,02,19,04,08,5.90
2010,02,19,04,09,5.90
2010,02,19,04,10,5.80
2010,02,19,04,11,5.80
2010,02,19,04,12,5.80
2010,02,19,04,13,5.80
2010,02,19,04,14,5.70
2010,02,19,04,15,5.70
2010,02,19,04,16,5.70
2010,02,19,04,17,5.70
2010,02,19,04,18,5.70
2010,02,19,04,19,5.70
2010,02,19,04,20,5.70
2010,02,19,04,21,5.70
2010,02,19,04,22,5.70
2010,02,19,04,23,5.60
2010,02,19,04,24,5.60
2010,02,19,04,25,5.50
2010,02,19,04,26,5.40
2010,02,19,04,27,5.40
2010,02,19,04,28,5.30
2010,02,19,04,29,5.30
2010,02,19,04,30,5.30
2010,02,19,04,31,5.20
2010,02,19,04,32,5.10
2010,02,19,04,33,5.10
2010,02,19,04,34,5.10
2010,02,19,04,35,5.10
2010,02,19,04,36,5.10
2010,02,19,04,37,5.10
2010,02,19,04,38,5.10
2010,02,19,04,39,5.10
2010,02,19,04,40,5.10
2010,02,19,04,41,5.10
2010,02,19,04,42,5.10
2010,02,19,04,43,5.10
2010,02,19,04,44,5.10
2010,02,19,04,45,4.90
2010,02,19,04,46,4.90
2010,02,19,04,47,4.90
2010,02,19,04,48,4.90
2010,02,19,04,49,4.90
2010,02,19,04,50,4.80
2010,02,19,04,51,4.80
2010,02,19,04,52,4.80
2010,02,19,04,53,4.70
2010,02,19,04,54,4.70
2010,02,19,04,55,4.60
2010,02,19,04,56,4.60
2010,02,19,04,57,4.60
2010,02,19,04,58,4.50
2010,02,19,04,59,4.50
2010,02,19,05,00,4.50
2010,02,19,05,01,4.40
2010,02,19,05,02,4.40
2010,02,19,05,03,4.30
2010,02,19,05,04,4.20
2010,02,19,05,05,4.30
2010,02,19,05,06,4.30
2010,02,19,05,07,4.30
2010,02,19,05,08,4.30
2010,02,19,05,09,4.40
2010,02,19,05,10,4.40
2010,02,19,05,11,4.30
2010,02,19,05,12,4.30
2010,02,19,05,13,4.30
2010,02,19,05,14,4.30
2010,02,19,05,15,4.30
2010,02,19,05,16,4.30
2010,02,19,05,17,4.40
2010,02,19,05,18,4.40
2010,02,19,05,19,4.40
2010,02,19,05,20,4.50
2010,02,19,05,21,4.50
2010,02,19,05,22,4.50
2010,02,19,05,23,4.60
2010,02,19,05,24,4.60
2010,02,19,05,25,4.60
2010,02,19,05,26,4.60
2010,02,19,05,27,4.60
2010,02,19,05,28,4.70
2010,02,19,05,29,4.70
2010,02,19,05,30,4.70
2010,02,19,05,31,4.70
2010,02,19,05,32,4.80
2010,02,19,05,33,4.80
2010,02,19,05,34,4.80
2010,02,19,05,35,4.80
2010,02,19,05,36,4.80
2010,02,19,05,37,4.90
2010,02,19,05,38,4.90
2010,02,19,05,39,4.90
2010,02,19,05,40,4.90
2010,02,19,05,41,4.90
2010,02,19,05,42,4.90
2010,02,19,05,43,4.90
2010,02,19,05,44,4.90
2010,02,19,05,45,5.00
2010,02,19,05,46,5.00
2010,02,19,05,47,4.90
2010,02,19,05,48,4.90
2010,02,19,05,49,4.90
2010,02,19,05,50,4.90
2010,02,19,05,51,4.90
2010,02,19,05,52,4.90
2010,02,19,05,53,4.90
2010,02,19,05,54,4.90
2010,02,19,05,55,4.80
2010,02,19,05,56,4.80
2010,02,19,05,57,4.90
2010,02,19,05,58,4.90
2010,02,19,05,59,4.90
2010,02,19,06,00,5.10
2010,02,19,06,01,5.10
2010,02,19,06,02,5.10
2010,02,19,06,03,5.10
2010,02,19,06,04,5.10
2010,02,19,06,05,5.10
2010,02,19,06,06,5.10
2010,02,19,06,07,5.20
2010,02,19,06,08,5.20
2010,02,19,06,09,5.20
2010,02,19,06,10,5.20
2010,02,19,06,11,5.30
2010,02,19,06,12,5.30
2010,02,19,06,13,5.30
2010,02,19,06,14,5.30
2010,02,19,06,15,5.30
2010,02,19,06,16,5.30
2010,02,19,06,17,5.40
2010,02,19,06,18,5.50
2010,02,19,06,19,5.50
2010,02,19,06,20,5.50
2010,02,19,06,21,5.50
2010,02,19,06,22,5.50
2010,02,19,06,23,5.50
2010,02,19,06,24,5.40
2010,02,19,06,25,5.40
2010,02,19,06,26,5.30
2010,02,19,06,27,5.30
2010,02,19,06,28,5.20
2010,02,19,06,29,5.10
2010,02,19,06,30,5.00
2010,02,19,06,31,4.90
2010,02,19,06,32,4.80
2010,02,19,06,33,4.70
2010,02,19,06,34,4.70
2010,02,19,06,35,4.60
2010,02,19,06,36,4.60
2010,02,19,06,37,4.60
2010,02,19,06,38,4.50
2010,02,19,06,39,4.50
2010,02,19,06,40,4.50
2010,02,19,06,41,4.50
2010,02,19,06,42,4.50
2010,02,19,06,43,4.60
2010,02,19,06,44,4.60
2010,02,19,06,45,4.60
2010,02,19,06,46,4.60
2010,02,19,06,47,4.60
2010,02,19,06,48,4.60
2010,02,19,06,49,4.70
2010,02,19,06,50,4.70
2010,02,19,06,51,4.70
2010,02,19,06,52,4.70
2010,02,19,06,53,4.70
2010,02,19,06,54,4.70
2010,02,19,06,55,4.70
2010,02,19,06,56,4.70
2010,02,19,06,57,4.70
2010,02,19,06,58,4.70
2010,02,19,06,59,4.80
2010,02,19,07,00,4.90
2010,02,19,07,01,5.00
2010,02,19,07,02,5.10
2010,02,19,07,03,5.20
2010,02,19,07,04,5.30
2010,02,19,07,05,5.40
2010,02,19,07,06,5.50
2010,02,19,07,07,5.60
2010,02,19,07,08,5.60
2010,02,19,07,09,5.60
2010,02,19,07,10,5.60
2010,02,19,07,11,5.60
2010,02,19,07,12,5.70
2010,02,19,07,13,5.80
2010,02,19,07,14,5.90
2010,02,19,07,15,5.90
2010,02,19,07,16,5.90
2010,02,19,07,17,5.90
2010,02,19,07,18,5.90
2010,02,19,07,19,5.90
2010,02,19,07,20,5.80
2010,02,19,07,21,5.80
2010,02,19,07,22,5.80
2010,02,19,07,23,5.80
2010,02,19,07,24,5.90
2010,02,19,07,25,5.90
2010,02,19,07,26,6.00
2010,02,19,07,27,6.00
2010,02,19,07,28,6.00
2010,02,19,07,29,6.00
2010,02,19,07,30,6.10
2010,02,19,07,31,6.10
2010,02,19,07,32,6.10
2010,02,19,07,33,6.10
2010,02,19,07,34,6.10
2010,02,19,07,35,6.10
2010,02,19,07,36,6.10
2010,02,19,07,37,6.20
2010,02,19,07,38,6.20
2010,02,19,07,39,6.20
2010,02,19,07,40,6.30
2010,02,19,07,41,6.30
2010,02,19,07,42,6.30
2010,02,19,07,43,6.30
2010,02,19,07,44,6.40
2010,02,19,07,45,6.40
2010,02,19,07,46,6.40
2010,02,19,07,47,6.40
2010,02,19,07,48,6.40
2010,02,19,07,49,6.40
2010,02,19,07,50,6.40
2010,02,19,07,51,6.40
2010,02,19,07,52,6.40
2010,02,19,07,53,6.40
2010,02,19,07,54,6.40
2010,02,19,07,55,6.50
2010,02,19,07,56,6.60
2010,02,19,07,57,6.60
2010,02,19,07,58,6.60
2010,02,19,07,59,6.60
2010,02,19,08,00,6.60
2010,02,19,08,01,6.60
2010,02,19,08,02,6.60
2010,02,19,08,03,6.70
2010,02,19,08,04,6.70
2010,02,19,08,05,6.80
2010,02,19,08,06,6.80
2010,02,19,08,07,6.80
2010,02,19,08,08,6.80
2010,02,19,08,09,6.90
2010,02,19,08,10,6.90
2010,02,19,08,11,6.90
2010,02,19,08,12,7.00
2010,02,19,08,13,7.00
2010,02,19,08,14,7.10
2010,02,19,08,15,7.20
2010,02,19,08,16,7.20
2010,02,19,08,17,7.30
2010,02,19,08,18,7.30
2010,02,19,08,19,7.40
2010,02,19,08,20,7.50
2010,02,19,08,21,7.60
2010,02,19,08,22,7.60
2010,02,19,08,23,7.70
2010,02,19,08,24,7.70
2010,02,19,08,25,7.80
2010,02,19,08,26,7.80
2010,02,19,08,27,7.90
2010,02,19,08,28,7.90
2010,02,19,08,29,8.00
2010,02,19,08,30,8.00
2010,02,19,08,31,8.10
2010,02,19,08,32,8.10
2010,02,19,08,33,8.20
2010,02,19,08,34,8.20
2010,02,19,08,35,8.30
2010,02,19,08,36,8.30
2010,02,19,08,37,8.40
2010,02,19,08,38,8.40
2010,02,19,08,39,8.40
2010,02,19,08,40,8.40
2010,02,19,08,41,8.40
2010,02,19,08,42,8.50
2010,02,19,08,43,8.60
2010,02,19,08,44,8.60
2010,02,19,08,45,8.70
2010,02,19,08,46,8.70
2010,02,19,08,47,8.70
2010,02,19,08,48,8.70
2010,02,19,08,49,8.70
2010,02,19,08,50,8.70
2010,02,19,08,51,8.70
2010,02,19,08,52,8.70
2010,02,19,08,53,8.70
2010,02,19,08,54,8.70
2010,02,19,08,55,8.70
2010,02,19,08,56,8.70
2010,02,19,08,57,8.70
2010,02,19,08,58,8.70
2010,02,19,08,59,8.70
2010,02,19,09,00,8.70
2010,02,19,09,01,8.70
2010,02,19,09,02,8.70
2010,02,19,09,03,8.70
2010,02,19,09,04,8.70
2010,02,19,09,05,8.70
2010,02,19,09,06,8.80
2010,02,19,09,07,8.80
2010,02,19,09,08,8.80
2010,02,19,09,09,8.90
2010,02,19,09,10,9.00
2010,02,19,09,11,9.00
2010,02,19,09,12,9.00
2010,02,19,09,13,9.00
2010,02,19,09,14,9.00
2010,02,19,09,15,9.10
2010,02,19,09,16,9.20
2010,02,19,09,17,9.20
2010,02,19,09,18,9.20
2010,02,19,09,19,9.20
2010,02,19,09,20,9.30
2010,02,19,09,21,9.30
2010,02,19,09,22,9.30
2010,02,19,09,23,9.40
2010,02,19,09,24,9.40
2010,02,19,09,25,9.40
2010,02,19,09,26,9.40
2010,02,19,09,27,9.50
2010,02,19,09,28,9.50
2010,02,19,09,29,9.50
2010,02,19,09,30,9.60
2010,02,19,09,31,9.60
2010,02,19,09,32,9.70
2010,02,19,09,33,9.70
2010,02,19,09,34,9.70
2010,02,19,09,35,9.70
2010,02,19,12,50,12.00
2010,02,19,12,51,12.00
2010,02,19,12,52,12.00
2010,02,19,12,53,12.00
2010,02,19,12,54,12.00
2010,02,19,12,55,12.00
2010,02,19,12,56,11.90
2010,02,19,12,57,11.90
2010,02,19,12,58,11.90
2010,02,19,12,59,12.00
2010,02,19,13,00,11.90
2010,02,19,13,01,11.90
2010,02,19,13,02,12.00
2010,02,19,13,03,11.90
2010,02,19,13,04,11.90
2010,02,19,13,05,11.80
2010,02,19,13,06,11.80
2010,02,19,13,07,11.80
2010,02,19,13,08,11.80
2010,02,19,13,09,11.90
2010,02,19,13,10,11.90
2010,02,19,13,11,12.00
2010,02,19,13,12,12.00
2010,02,19,13,13,12.00
2010,02,19,13,14,12.00
2010,02,19,13,15,12.00
2010,02,19,13,16,12.00
2010,02,19,13,17,12.00
2010,02,19,13,18,12.00
2010,02,19,13,19,11.90
2010,02,19,13,20,11.90
2010,02,19,13,21,12.00
2010,02,19,13,22,12.00
2010,02,19,13,23,12.00
2010,02,19,13,24,12.00
2010,02,19,13,25,12.00
2010,02,19,13,26,11.90
2010,02,19,13,27,11.90
2010,02,19,13,28,11.90
2010,02,19,13,29,12.00
2010,02,19,13,30,12.00
2010,02,19,13,31,12.00
2010,02,19,13,32,12.00
2010,02,19,13,33,12.00
2010,02,19,13,34,12.10
2010,02,19,13,35,12.10
2010,02,19,13,36,12.20
2010,02,19,13,37,12.30
2010,02,19,13,38,12.40
2010,02,19,13,39,12.50
2010,02,19,13,40,12.50
2010,02,19,13,41,12.50
2010,02,19,13,42,12.50
2010,02,19,13,43,12.50
2010,02,19,13,44,12.50
2010,02,19,13,45,12.50
2010,02,19,13,46,12.40
2010,02,19,13,47,12.40
2010,02,19,13,48,12.40
2010,02,19,13,49,12.50
2010,02,19,13,50,12.50
2010,02,19,13,51,12.50
2010,02,19,13,52,12.40
2010,02,19,13,53,12.40
2010,02,19,13,54,12.40
2010,02,19,13,55,12.30
2010,02,19,13,56,12.30
2010,02,19,13,57,12.40
2010,02,19,13,58,12.50
2010,02,19,13,59,12.60
2010,02,19,14,00,12.70
2010,02,19,14,01,12.80
2010,02,19,14,02,12.70
2010,02,19,14,03,12.70
2010,02,19,14,04,12.70
2010,02,19,14,05,12.70
2010,02,19,14,06,12.80
2010,02,19,14,07,12.80
2010,02,19,14,08,12.80
2010,02,19,14,09,12.80
2010,02,19,14,10,12.80
2010,02,19,14,11,12.90
2010,02,19,14,12,13.00
2010,02,19,14,13,13.00
2010,02,19,14,14,13.00
2010,02,19,14,15,13.00
2010,02,19,14,16,13.00
2010,02,19,14,17,12.90
2010,02,19,14,18,12.90
2010,02,19,14,19,12.80
2010,02,19,14,20,12.70
2010,02,19,14,21,12.70
2010,02,19,14,22,12.60
2010,02,19,14,23,12.50
2010,02,19,14,24,12.50
2010,02,19,14,25,12.60
2010,02,19,14,26,12.60
2010,02,19,14,27,12.60
2010,02,19,14,28,12.70
2010,02,19,14,29,12.70
2010,02,19,14,30,12.80
2010,02,19,14,31,12.80
2010,02,19,14,32,12.80
2010,02,19,14,33,12.80
2010,02,19,14,34,12.80
2010,02,19,14,35,12.80
2010,02,19,14,36,12.80
2010,02,19,14,37,12.70
2010,02,19,14,38,12.70
2010,02,19,14,39,12.70
2010,02,19,14,40,12.80
2010,02,19,14,41,12.80
2010,02,19,14,42,12.80
2010,02,19,14,43,12.80
2010,02,19,14,44,12.80
2010,02,19,14,45,12.80
2010,02,19,14,46,12.80
2010,02,19,14,47,12.80
2010,02,19,14,48,12.80
2010,02,19,14,49,12.80
2010,02,19,14,50,12.80
2010,02,19,14,51,12.80
2010,02,19,14,52,12.80
2010,02,19,14,53,12.80
2010,02,19,14,54,12.80
2010,02,19,14,55,12.80
2010,02,19,14,56,12.80
2010,02,19,14,57,12.80
2010,02,19,14,58,12.70
2010,02,19,14,59,12.70
2010,02,19,15,00,12.70
2010,02,19,15,01,12.70
2010,02,19,15,02,12.70
2010,02,19,15,03,12.70
2010,02,19,15,04,12.70
2010,02,19,15,05,12.70
2010,02,19,15,06,12.80
2010,02,19,15,07,12.80
2010,02,19,15,08,12.80
2010,02,19,15,09,12.80
2010,02,19,15,10,12.80
2010,02,19,15,11,12.80
2010,02,19,15,12,12.80
2010,02,19,15,13,12.80
2010,02,19,15,14,12.80
2010,02,19,15,15,12.80
2010,02,19,15,16,12.80
2010,02,19,15,17,12.80
2010,02,19,15,18,12.80
2010,02,19,15,19,12.80
2010,02,19,15,20,12.80
2010,02,19,15,21,12.80
2010,02,19,15,22,12.80
2010,02,19,15,23,12.90
2010,02,19,15,24,13.00
2010,02,19,15,25,13.00
2010,02,19,15,26,13.10
2010,02,19,15,27,13.10
2010,02,19,15,28,13.10
2010,02,19,15,29,13.20
2010,02,19,15,30,13.20
2010,02,19,15,31,13.20
2010,02,19,15,32,13.20
2010,02,19,15,33,13.10
2010,02,19,15,34,13.10
2010,02,19,15,35,13.10
2010,02,19,15,36,13.00
2010,02,19,15,37,13.00
2010,02,19,15,38,12.90
2010,02,19,15,39,12.90
2010,02,19,15,40,13.00
2010,02,19,15,41,13.00
2010,02,19,15,42,12.90
2010,02,19,15,43,12.80
2010,02,19,15,44,12.80
2010,02,19,15,45,12.90
2010,02,19,15,46,12.80
2010,02,19,15,47,12.80
2010,02,19,15,48,12.80
2010,02,19,15,49,12.70
2010,02,19,15,50,12.70
2010,02,19,15,51,12.70
2010,02,19,15,52,12.60
2010,02,19,15,53,12.60
2010,02,19,15,54,12.50
2010,02,19,15,55,12.50
2010,02,19,15,56,12.50
2010,02,19,15,57,12.40
2010,02,19,15,58,12.40
2010,02,19,15,59,12.40
2010,02,19,16,00,12.50
2010,02,19,16,01,12.50
2010,02,19,16,02,12.60
2010,02,19,16,03,12.70
2010,02,19,16,04,12.80
2010,02,19,16,05,12.80
2010,02,19,16,06,12.80
2010,02,19,16,07,12.80
2010,02,19,16,08,12.80
2010,02,19,16,09,12.80
2010,02,19,16,10,12.80
2010,02,19,16,11,12.80
2010,02,19,16,12,12.80
2010,02,19,16,13,12.80
2010,02,19,16,14,12.80
2010,02,19,16,15,12.80
2010,02,19,16,16,12.80
2010,02,19,16,17,12.80
2010,02,19,16,18,12.80
2010,02,19,16,19,12.90
2010,02,19,16,20,12.90
2010,02,19,16,21,12.90
2010,02,19,16,22,13.00
2010,02,19,16,23,12.90
2010,02,19,16,24,12.90
2010,02,19,16,25,12.90
2010,02,19,16,26,12.80
2010,02,19,16,27,12.80
2010,02,19,16,28,12.80
2010,02,19,16,29,12.70
2010,02,19,16,30,12.60
2010,02,19,16,31,12.60
2010,02,19,16,32,12.50
2010,02,19,16,33,12.50
2010,02,19,16,34,12.40
2010,02,19,16,35,12.30
2010,02,19,16,36,12.30
2010,02,19,16,37,12.20
2010,02,19,16,38,12.20
2010,02,19,16,39,12.10
2010,02,19,16,40,12.00
2010,02,19,16,41,12.00
2010,02,19,16,42,11.90
2010,02,19,16,43,11.80
2010,02,19,16,44,11.80
2010,02,19,16,45,11.70
2010,02,19,16,46,11.70
2010,02,19,16,47,11.60
2010,02,19,16,48,11.60
2010,02,19,16,49,11.60
2010,02,19,16,50,11.60
2010,02,19,16,51,11.50
2010,02,19,16,52,11.40
2010,02,19,16,53,11.40
2010,02,19,16,54,11.40
2010,02,19,16,55,11.30
2010,02,19,16,56,11.30
2010,02,19,16,57,11.20
2010,02,19,16,58,11.10
2010,02,19,16,59,11.10
2010,02,19,17,00,10.90
2010,02,19,17,01,10.90
2010,02,19,17,02,10.80
2010,02,19,17,03,10.70
2010,02,19,17,04,10.70
2010,02,19,17,05,10.60
2010,02,19,17,06,10.60
2010,02,19,17,07,10.60
2010,02,19,17,08,10.50
2010,02,19,17,09,10.40
2010,02,19,17,10,10.40
2010,02,19,17,11,10.30
2010,02,19,17,12,10.20
2010,02,19,17,13,10.20
2010,02,19,17,14,10.10
2010,02,19,17,15,10.10
2010,02,19,17,16,10.00
2010,02,19,17,17,9.90
2010,02,19,17,18,9.90
2010,02,19,17,19,9.80
2010,02,19,17,20,9.70
2010,02,19,17,21,9.70
2010,02,19,17,22,9.60
2010,02,19,17,23,9.50
2010,02,19,17,24,9.40
2010,02,19,17,25,9.30
2010,02,19,17,26,9.30
2010,02,19,17,27,9.20
2010,02,19,17,28,9.10
2010,02,19,17,29,9.00
2010,02,19,17,30,8.90
2010,02,19,17,31,8.90
2010,02,19,17,32,8.80
2010,02,19,17,33,8.70
2010,02,19,17,34,8.70
2010,02,19,17,35,8.60
2010,02,19,17,36,8.50
2010,02,19,17,37,8.50
2010,02,19,17,38,8.40
2010,02,19,17,39,8.30
2010,02,19,17,40,8.30
2010,02,19,17,41,8.20
2010,02,19,17,42,8.20
2010,02,19,17,43,8.20
2010,02,19,17,44,8.10
2010,02,19,17,45,8.10
2010,02,19,17,46,8.10
2010,02,19,17,47,8.10
2010,02,19,17,48,8.00
2010,02,19,17,49,8.00
2010,02,19,17,50,8.00
2010,02,19,17,51,7.90
2010,02,19,17,52,7.90
2010,02,19,17,53,7.90
2010,02,19,17,54,7.80
2010,02,19,17,55,7.80
2010,02,19,17,56,7.80
2010,02,19,17,57,7.70
2010,02,19,17,58,7.70
2010,02,19,17,59,7.70
2010,02,19,18,00,7.70
2010,02,19,18,01,7.70
2010,02,19,18,02,7.70
2010,02,19,18,03,7.70
2010,02,19,18,04,7.70
2010,02,19,18,05,7.70
2010,02,19,18,06,7.70
2010,02,19,18,07,7.80
2010,02,19,18,08,7.80
2010,02,19,18,09,7.80
2010,02,19,18,10,7.80
2010,02,19,18,11,7.80
2010,02,19,18,12,7.80
2010,02,19,18,13,7.80
2010,02,19,18,14,7.80
2010,02,19,18,15,7.80
2010,02,19,18,16,7.80
2010,02,19,18,17,7.70
2010,02,19,18,18,7.70
2010,02,19,18,19,7.70
2010,02,19,18,20,7.60
2010,02,19,18,21,7.60
2010,02,19,18,22,7.60
2010,02,19,18,23,7.60
2010,02,19,18,24,7.60
2010,02,19,18,25,7.60
2010,02,19,18,26,7.60
2010,02,19,18,27,7.50
2010,02,19,18,28,7.50
2010,02,19,18,29,7.50
2010,02,19,18,30,7.50
2010,02,19,18,31,7.50
2010,02,19,18,32,7.50
2010,02,19,18,33,7.50
2010,02,19,18,34,7.50
2010,02,19,18,35,7.40
2010,02,19,18,36,7.40
2010,02,19,18,37,7.40
2010,02,19,18,38,7.40
2010,02,19,18,39,7.40
2010,02,19,18,40,7.30
2010,02,19,18,41,7.30
2010,02,19,18,42,7.30
2010,02,19,18,43,7.30
2010,02,19,18,44,7.30
2010,02,19,18,45,7.30
2010,02,19,18,46,7.20
2010,02,19,18,47,7.20
2010,02,19,18,48,7.20
2010,02,19,18,49,7.10
2010,02,19,18,50,7.10
2010,02,19,18,51,7.10
2010,02,19,18,52,7.00
2010,02,19,18,53,7.00
2010,02,19,18,54,7.00
2010,02,19,18,55,7.00
2010,02,19,18,56,6.90
2010,02,19,18,57,6.90
2010,02,19,18,58,6.90
2010,02,19,18,59,6.90
2010,02,19,19,00,6.80
2010,02,19,19,01,6.80
2010,02,19,19,02,6.80
2010,02,19,19,03,6.80
2010,02,19,19,04,6.80
2010,02,19,19,05,6.80
2010,02,19,19,06,6.80
2010,02,19,19,07,6.80
2010,02,19,19,08,6.80
2010,02,19,19,09,6.80
2010,02,19,19,10,6.80
2010,02,19,19,11,6.80
2010,02,19,19,12,6.70
2010,02,19,19,13,6.70
2010,02,19,19,14,6.70
2010,02,19,19,15,6.70
2010,02,19,19,16,6.70
2010,02,19,19,17,6.70
2010,02,19,19,18,6.60
2010,02,19,19,19,6.60
2010,02,19,19,20,6.60
2010,02,19,19,21,6.60
2010,02,19,19,22,6.60
2010,02,19,19,23,6.60
2010,02,19,19,24,6.60
2010,02,19,19,25,6.60
2010,02,19,19,26,6.60
2010,02,19,19,27,6.60
2010,02,19,19,28,6.60
2010,02,19,19,29,6.60
2010,02,19,19,30,6.60
2010,02,19,19,31,6.60
2010,02,19,19,32,6.40
2010,02,19,19,33,6.40
2010,02,19,19,34,6.40
2010,02,19,19,35,6.40
2010,02,19,19,36,6.40
2010,02,19,19,37,6.40
2010,02,19,19,38,6.40
2010,02,19,19,39,6.40
2010,02,19,19,40,6.30
2010,02,19,19,41,6.30
2010,02,19,19,42,6.20
2010,02,19,19,43,6.20
2010,02,19,19,44,6.20
2010,02,19,19,45,6.10
2010,02,19,19,46,6.10
2010,02,19,19,47,6.00
2010,02,19,19,48,6.00
2010,02,19,19,49,6.00
2010,02,19,19,50,6.00
2010,02,19,19,51,6.00
2010,02,19,19,52,6.00
2010,02,19,19,53,6.00
2010,02,19,19,54,6.10
2010,02,19,19,55,6.10
2010,02,19,19,56,6.10
2010,02,19,19,57,6.10
2010,02,19,19,58,6.20
2010,02,19,19,59,6.20
2010,02,19,20,00,6.20
2010,02,19,20,01,6.20
2010,02,19,20,02,6.20
2010,02,19,20,03,6.20
2010,02,19,20,04,6.10
2010,02,19,20,05,6.00
2010,02,19,20,06,6.00
2010,02,19,20,07,5.90
2010,02,19,20,08,5.80
2010,02,19,20,09,5.70
2010,02,19,20,10,5.70
2010,02,19,20,11,5.70
2010,02,19,20,12,5.60
2010,02,19,20,13,5.50
2010,02,19,20,14,5.50
2010,02,19,20,15,5.40
2010,02,19,20,16,5.30
2010,02,19,20,17,5.30
2010,02,19,20,18,5.30
2010,02,19,20,19,5.20
2010,02,19,20,20,5.10
2010,02,19,20,21,5.10
2010,02,19,20,22,5.10
2010,02,19,20,23,5.00
2010,02,19,20,24,4.90
2010,02,19,20,25,4.90
2010,02,19,20,26,4.90
2010,02,19,20,27,4.80
2010,02,19,20,28,4.80
2010,02,19,20,29,4.80
2010,02,19,20,30,4.70
2010,02,19,20,31,4.70
2010,02,19,20,32,4.60
2010,02,19,20,33,4.60
2010,02,19,20,34,4.60
2010,02,19,20,35,4.60
2010,02,19,20,36,4.60
2010,02,19,20,37,4.60
2010,02,19,20,38,4.60
2010,02,19,20,39,4.60
2010,02,19,20,40,4.60
2010,02,19,20,41,4.60
2010,02,19,20,42,4.60
2010,02,19,20,43,4.60
2010,02,19,20,44,4.60
2010,02,19,20,45,4.60
2010,02,19,20,46,4.60
2010,02,19,20,47,4.60
2010,02,19,20,48,4.60
2010,02,19,20,49,4.60
2010,02,19,20,50,4.60
2010,02,19,20,51,4.50
2010,02,19,20,52,4.50
2010,02,19,20,53,4.50
2010,02,19,20,54,4.50
2010,02,19,20,55,4.50
2010,02,19,20,56,4.50
2010,02,19,20,57,4.50
2010,02,19,20,58,4.50
2010,02,19,20,59,4.50
2010,02,19,21,00,4.50
2010,02,19,21,01,4.50
2010,02,19,21,02,4.50
2010,02,19,21,03,4.50
2010,02,19,21,04,4.50
2010,02,19,21,05,4.50
2010,02,19,21,06,4.50
2010,02,19,21,07,4.60
2010,02,19,21,08,4.60